www.pogodaiklimat.ru
ПОГОДА в Дуале
Время
(UTC), дата
09 27.05
12 27.05
15 27.05
18 27.05
00 28.05
03 28.05
06 28.05
09 28.05
12 28.05
15 28.05
18 28.05
21 28.05
00 29.05
09 29.05
12 29.05
15 29.05
18 29.05
21 29.05
00 30.05
03 30.05
06 30.05
09 30.05
12 30.05
15 30.05
18 30.05
21 30.05
00 31.05
03 31.05
06 31.05
09 31.05
12 31.05
15 31.05
18 31.05
21 31.05
00 1.06
03 1.06
06 1.06
09 1.06
12 1.06
15 1.06
18 1.06
21 1.06
00 2.06
03 2.06
06 2.06
09 2.06
12 2.06
15 2.06
18 2.06
21 2.06
00 3.06
03 3.06
06 3.06
Ветер
(напр.,м/с)
Видим. Явления Облачность Т
(С)
Тd
(С)
f
(%)
Тe
(С)
Тes
(С)
Комфортность P
(гПа)
Po
(гПа)
Тmin
(С)
Tmax
(С)
R
(мм)
R24
(мм)
S
(см)
ЮЗ 2 10 км {гроза} 8/6 480 м
[Cb cap Ci sp]
+31.0 +25.7 73 +46 +50 опасность
перегрева
1013.6 1012.6
ЮЗ 3 10 км {гроза} 8/8 480 м
[Cb cap]
+32.0 +25.8 70 +47 +50 опасность
перегрева
1011.6 1010.6
ЮЗ 4 10 км гроза без осадков 10/3 480 м
[Cb cap Ac As]
+30.0 +26.0 79 +45 +46 опасность
перегрева
1009.5 1008.5
Ю 2 20 км гроза без осадков 10/6 480 м
[Cb cap Ac As]
+29.1 +25.6 81 +43 +43 опасность
перегрева
1010.0 1009.0 +32.9
штиль 0 10 км гроза без осадков 8/4 480 м
[Cb cap Ci sp]
+27.0 +26.3 96 +41 +41 опасность
перегрева
1011.1 1010.1
штиль 0 10 км гроза без осадков 9/4 480 м
[Cb cap Ac lent Ci sp]
+26.5 +25.4 94 +39 +39 очень
душно
1010.4 1009.4
штиль 0 10 км гроза без осадков 10/4 480 м
[Cb cap Ac As]
+25.2 +23.8 92 +34 +35 очень
душно
1011.5 1010.5 +24.1
штиль 0 10 км гроза без осадков 9/6 480 м
[Cb cap Ac As]
+27.4 +25.4 89 +40 +44 очень
душно
1013.2 1012.2
З 3 10 км {гроза} 8/8 600 м
[Cb cap]
+31.8 +25.8 71 +47 +50 опасность
перегрева
1010.8 1009.8
ЮЗ 3 10 км 8/5 480 м
[Cb cap Ci sp]
+31.2 +25.6 72 +46 +48 опасность
перегрева
1008.4 1007.4
ЮЗ 2 10 км гроза без осадков 9/6 480 м
[Cb cap Ac cuf]
+28.5 +25.5 84 +42 +42 опасность
перегрева
1010.1 1009.1 +33.0
ЮЗ 2 10 км 9/8 480 м
[Cb cap]
+28.0 +26.1 89 +42 +42 опасность
перегрева
1011.8 1010.8
штиль 0 10 км гроза, ливневой дождь 9/9 480 м
[Cb cap]
+26.4 +25.3 94 +38 +38 очень
душно
1011.5 1010.5 0.9
штиль 0 10 км {гроза} 9/8 480 м
[Cb cap Ac cuf]
+28.2 +23.6 76 +38 +41 очень
душно
1013.6 1012.6
В 2 10 км {гроза} 9/8 480 м
[Cb cap Ci sp]
+30.5 +23.6 67 +42 +45 опасность
перегрева
1012.0 1011.0
ЮЗ 1 10 км гроза без осадков 9/4 480 м
[Cb cap Ac cuf Ci sp]
+27.3 +22.5 75 +36 +39 очень
душно
1009.0 1008.0
Ю 2 10 км {гроза} 9/4 480 м
[Cb cap Ac cuf]
+26.0 +23.4 86 +35 +35 очень
душно
1009.7 1008.7 +31.7
штиль 0 10 км 8/8 480 м
[Cb cap]
+25.0 +23.8 93 +34 +34 очень
душно
1013.3 1012.3
штиль 0 10 км 9/9 480 м
[Cb cap]
+24.6 +23.7 95 +33 +33 очень
душно
1012.1 1011.1
штиль 0 10 км 9/9 480 м
[Cb cap]
+25.0 +23.5 91 +34 +34 очень
душно
1012.0 1011.0
штиль 0 10 км в посл. час дождь 9/8 480 м
[Cb cap Ac As]
+23.7 +23.1 96 +31 +32 очень
душно
1011.4 1010.4 +22.5 4 4
ЮВ 3 10 км 9/6 480 м
[Cb cap Ac As]
+25.5 +23.6 89 +35 +37 очень
душно
1012.7 1011.7
З 3 10 км 9/4 480 м
[Cb calv Ac trans]
+31.0 +23.4 64 +42 +47 опасность
перегрева
1010.9 1009.9
ЮЗ 2 10 км 9/5 480 м
[Cb calv Ci sp]
+31.0 +23.6 65 +42 +45 опасность
перегрева
1009.8 1008.8
ЮЗ 2 10 км 9/5 480 м
[Cb calv Ci sp]
+27.7 +24.7 84 +39 +39 очень
душно
1010.8 1009.8 +32.0
штиль 0 10 км 8/8 480 м
[Cb cap]
+25.0 +23.8 93 +34 +34 очень
душно
1013.3 1012.3
штиль 0 10 км 9/6 480 м
[Cb cap Ac cuf]
+25.4 +24.8 96 +36 +36 очень
душно
1011.8 1010.8
штиль 0 10 км 9/9 480 м
[Cb cap]
+26.0 +24.6 92 +37 +37 очень
душно
1011.4 1010.4
штиль 0 10 км 9/4 480 м
[Cb calv Ac und Ci sp]
+25.7 +25.2 97 +37 +37 очень
душно
1012.6 1011.6 +24.0
штиль 0 20 км 9/8 600 м
[Cb calv Ci sp]
+31.0 +25.4 72 +45 +48 опасность
перегрева
1013.3 1012.3
Ю 2 20 км 9/8 700 м
[Cb calv Ci sp]
+32.0 +26.3 72 +48 +52 опасность
перегрева
1012.0 1011.0
ЮЗ 4 10 км 8/5 480 м
[Cb calv Ci sp]
+31.1 +25.6 73 +46 +48 опасность
перегрева
1010.3 1009.3
ЮЗ 2 10 км 8/4 480 м
[Cb calv Ci sp]
+28.5 +25.6 84 +42 +42 опасность
перегрева
1011.5 1010.5 +32.5
штиль 0 10 км гроза без осадков 9/9 480 м
[Cb cap]
+27.8 +25.8 89 +41 +41 опасность
перегрева
1013.5 1012.5
штиль 0 10 км гроза без осадков 9/9 400 м
[Cb cap]
+26.6 +25.8 95 +39 +39 очень
душно
1013.2 1012.2 0.0
штиль 0 10 км гроза без осадков 8/8 480 м
[Cb cap]
+25.2 +24.2 94 +35 +35 очень
душно
1013.1 1012.1
штиль 0 10 км {гроза} 9/8 480 м
[Cb cap Ac As]
+25.0 +24.0 94 +34 +34 очень
душно
1014.1 1013.1 +24.0
ЮЗ 2 10 км 9/6 480 м
[Cb cap Ci sp]
+29.0 +24.5 77 +41 +46 опасность
перегрева
1014.5 1013.5
штиль 0 7000 м гроза, ливневой дождь 10/9 400 м
[Cb cap Ac As]
+23.7 +22.7 94 +31 +32 очень
душно
1013.7 1012.7 20
ЮЗ 4 10 км гроза без осадков 9/4 400 м
[Cb cap Ac As]
+25.5 +24.3 93 +35 +37 очень
душно
1011.1 1010.1
штиль 0 10 км {гроза, дождь} 9/4 480 м
[Cb cap Ci sp]
+25.0 +24.2 95 +34 +34 очень
душно
1012.4 1011.4 +31.4 24
Ю 1 10 км гроза без осадков 9/4 480 м
[Cb cap Ac As]
+24.5 +23.8 96 +33 +33 очень
душно
1013.8 1012.8
штиль 0 20 км гроза без осадков 10/4 480 м
[Cb cap Ac As]
+23.8 +23.1 96 +32 +32 очень
душно
1013.4 1012.4
штиль 0 10 км гроза без осадков 9/5 480 м
[Cb cap Ci sp]
+23.8 +23.4 98 +32 +32 очень
душно
1013.1 1012.1
штиль 0 10 км {гроза} 9/4 480 м
[Cb cap Ac cuf Ci sp]
+23.5 +22.8 96 +31 +31 очень
душно
1013.9 1012.9 +22.5 24
штиль 0 30 км 9/3 600 м
[Cb calv Ac und]
+29.2 +24.4 75 +41 +46 опасность
перегрева
1013.7 1012.7
Ю 2 10 км 8/8 600 м
[Cb calv]
+31.9 +25.1 67 +45 +49 опасность
перегрева
1012.8 1011.8
Ю 3 10 км 6/4 480 м
[Cb calv Ci sp]
+31.6 +24.4 66 +44 +47 опасность
перегрева
1010.9 1009.9
штиль 0 10 км 9/3 480 м
[Cb calv Ci sp]
+28.0 +24.9 83 +40 +40 очень
душно
1011.8 1010.8 +32.0
штиль 0 10 км 8/8 480 м
[Cb calv]
+26.0 +25.3 96 +38 +38 очень
душно
1013.3 1012.3
штиль 0 10 км 8/8 480 м
[Cb calv]
+25.5 +23.5 89 +35 +35 очень
душно
1012.5 1011.5
штиль 0 10 км 9/9 480 м
[Cb cap]
+25.6 +24.1 91 +35 +35 очень
душно
1011.9 1010.9
штиль 0 10 км слаб. дождь 9/8 480 м
[Cb cap Ac As]
+25.8 +25.4 98 +38 +38 очень
душно
1012.6 1011.6 +25.0 3 3
Местоположение метеостанции Дуала (Камерун): широта 4.00 долгота 9.73 высота над уровнем моря 9 м.
В архиве по умолчанию представлена погода в Дуале за последнюю неделю. Архивные данные за месяц целиком и за предыдущие месяцы, начиная с января 2011 года, Вы можете получить, выбрав интересующий диапазон дат из раскрывающегося списка и нажав кнопку "Найти!".
*Определитесь, кто Вы:
Внимание! Время в таблицах - всемирное. Для получения местного времени необходимо прибавить поправку, которая равна 1 ч.
Смотрите также архив погоды в соседних городах и на ближайших метеорологических станциях:
Партнеры нашего сайта:      
Пояснения к столбцам:
  • Ветер - указаны скорость ветра в м/с - средняя за 10 мин, порывы в срок и между сроками (в фигурных скобках) и направление, откуда дует ветер: С - северный,
  • СВ - северо-восточный, В - восточный, ЮВ - юго-восточный, Ю - южный, ЮЗ - юго-западный, З - западный, СЗ - северо-западный.
  • Видимость - горизонтальная дальность видимости в метрах или километрах. При видимости от 1 до 10 км при отсутствии осадков обычно наблюдается дымка, при ухудшении видимости до 1 км и менее - туман. В сухую погоду видимость может ухудшаться дымом, пылью или мглою.
  • Явления - указаны атмосферные явления, наблюдавшиеся в срок или в последний час перед сроком; фигурными скобками обозначены явления, наблюдавшиеся между сроками (за 1-3 часа до срока); квадратными скобками обозначены град или гололедные отложения с указанием их диаметра в мм.
  • Облачность - указаны через наклонную черту общая и нижняя облачность в баллах и высота нижней границы облаков в метрах; квадратными скобками обозначены формы облаков: Ci - перистые, Cs - перисто-слоистые, Cc - перисто-кучевые, Ac - высококучевые, As - высокослоистые, Sc - слоисто-кучевые, Ns - слоисто-дождевые, Cu - кучевые, Cb - кучево-дождевые. Подробнее классификацию облаков см. в Атласе облаков (PDF).
  • T - Температура воздуха - температура, измеренная на высоте 2 м над землей.
  • Td - Температура точки росы - температура, при понижении до которой содержащийся в воздухе водяной пар достигнет насыщения.
  • f - Относительная влажность воздуха - влажноcть воздуха, измеренная на высоте 2 м над землей.
  • Te - Эффективная температура - температура, которую ощущает одетый по сезону человек в тени. Характеристика душности погоды. При расчете учитывается влияние влажности воздуха и скорости ветра на теплоощущения человека.
  • Tes - Эффективная температура на солнце - температура, которую ощущает человек, с поправкой на солнечный нагрев. Характеристика знойности погоды. Зависит от высоты солнца над горизонтом, облачности и скорости ветра. Ночью, в пасмурную погоду, а также при ветре 12 м/с и более поправка равна нулю.
  • P - Атмосферное давление - приведенное к уровню моря атмосферное давление.
  • Po - Атмосферное давление - измеренное на уровне метеостанции атмосферное давление.
  • Tmin - Минимальная температура - минимум температуры воздуха на высоте 2 м над землей.
  • Tmax - Максимальная температура - максимум температуры воздуха на высоте 2 м над землей.
  • R - Количество осадков - Количество выпавших осадков за период времени, мм. При наведении курсора мыши на число - период времени, за который выпало указанное количество осадков.
  • R24 - Количество осадков - Количество выпавших осадков за 24 часа, мм.
  • S - Снежный покров - Высота снежного покрова, см. При наведении курсора мыши на число - состояние снежного покрова и степень покрытия местности в баллах.